Time,TemperatureF,DewpointF,PressureIn,WindDirection,WindDirectionDegrees,WindSpeedMPH,WindSpeedGustMPH,Humidity,HourlyPrecipIn,Conditions,Clouds,dailyrainin,SoftwareType,DateUTC
2013-10-20 00:14:00,50.0,-99.9,-100.00,North,-999,-999.0,-999.0,-999,0.01,,,0.05,,2013-10-20 04:14:00,
2013-10-20 00:24:00,50.0,-99.9,-100.00,North,-999,-999.0,-999.0,-999,0.01,,,0.05,,2013-10-20 04:24:00,
2013-10-20 00:30:00,50.0,-99.9,-100.00,North,-999,-999.0,-999.0,-999,0.01,,,0.06,,2013-10-20 04:30:00,
2013-10-20 01:13:00,50.0,-99.9,-100.00,North,-999,-999.0,-999.0,-999,0.01,,,0.06,,2013-10-20 05:13:00,
2013-10-20 01:23:00,50.0,-99.9,-100.00,North,-999,-999.0,-999.0,-999,0.01,,,0.06,,2013-10-20 05:23:00,
2013-10-20 01:30:00,51.0,-99.9,-100.00,North,-999,-999.0,-999.0,-999,0.00,,,0.06,,2013-10-20 05:30:00,
2013-10-20 02:13:00,51.0,-99.9,-100.00,North,-999,-999.0,-999.0,-999,0.00,,,0.06,,2013-10-20 06:13:00,
2013-10-20 02:22:00,51.0,-99.9,-100.00,North,-999,-999.0,-999.0,-999,0.00,,,0.06,,2013-10-20 06:22:00,
2013-10-20 02:30:00,52.0,-99.9,-100.00,North,-999,-999.0,-999.0,-999,0.00,,,0.06,,2013-10-20 06:30:00,
2013-10-20 03:12:00,52.0,-99.9,-100.00,North,-999,-999.0,-999.0,-999,0.00,,,0.06,,2013-10-20 07:12:00,
2013-10-20 03:22:00,52.0,-99.9,-100.00,North,-999,-999.0,-999.0,-999,0.00,,,0.06,,2013-10-20 07:22:00,
2013-10-20 03:30:00,50.0,-99.9,-100.00,North,-999,-999.0,-999.0,-999,0.00,,,0.06,,2013-10-20 07:30:00,
2013-10-20 04:12:00,50.0,-99.9,-100.00,North,-999,-999.0,-999.0,-999,0.00,,,0.06,,2013-10-20 08:12:00,
2013-10-20 04:22:00,50.0,-99.9,-100.00,North,-999,-999.0,-999.0,-999,0.00,,,0.06,,2013-10-20 08:22:00,
2013-10-20 04:30:00,51.0,-99.9,-100.00,North,-999,-999.0,-999.0,-999,0.00,,,0.06,,2013-10-20 08:30:00,
2013-10-20 05:11:00,51.0,-99.9,-100.00,North,-999,-999.0,-999.0,-999,0.00,,,0.06,,2013-10-20 09:11:00,
2013-10-20 05:22:00,51.0,-99.9,-100.00,North,-999,-999.0,-999.0,-999,0.00,,,0.06,,2013-10-20 09:22:00,
2013-10-20 05:30:00,50.0,-99.9,-100.00,North,-999,-999.0,-999.0,-999,0.00,,,0.06,,2013-10-20 09:30:00,
2013-10-20 06:13:00,50.0,-99.9,-100.00,North,-999,-999.0,-999.0,-999,0.00,,,0.06,,2013-10-20 10:13:00,
2013-10-20 06:23:00,50.0,-99.9,-100.00,North,-999,-999.0,-999.0,-999,0.00,,,0.06,,2013-10-20 10:23:00,
2013-10-20 06:30:00,49.0,-99.9,-100.00,North,-999,-999.0,-999.0,-999,0.00,,,-99.99,,2013-10-20 10:30:00,
2013-10-20 07:12:00,49.0,-99.9,-100.00,North,-999,-999.0,-999.0,-999,0.00,,,-99.99,,2013-10-20 11:12:00,
2013-10-20 07:22:00,49.0,-99.9,-100.00,North,-999,-999.0,-999.0,-999,0.00,,,-99.99,,2013-10-20 11:22:00,
2013-10-20 07:30:00,48.0,-99.9,-100.00,North,-999,-999.0,-999.0,-999,0.00,,,0.06,,2013-10-20 11:30:00,
2013-10-20 08:11:00,48.0,-99.9,-100.00,North,-999,-999.0,-999.0,-999,0.00,,,0.06,,2013-10-20 12:11:00,
2013-10-20 08:22:00,48.0,-99.9,-100.00,North,-999,-999.0,-999.0,-999,0.00,,,0.06,,2013-10-20 12:22:00,
2013-10-20 08:30:00,49.0,-99.9,-100.00,North,-999,-999.0,-999.0,-999,0.00,,,0.06,,2013-10-20 12:30:00,
2013-10-20 09:11:00,49.0,-99.9,-100.00,North,-999,-999.0,-999.0,-999,0.00,,,0.06,,2013-10-20 13:11:00,
2013-10-20 09:22:00,49.0,-99.9,-100.00,North,-999,-999.0,-999.0,-999,0.00,,,0.06,,2013-10-20 13:22:00,
2013-10-20 09:30:00,50.0,-99.9,-100.00,North,-999,-999.0,-999.0,-999,0.00,,,0.06,,2013-10-20 13:30:00,
2013-10-20 10:12:00,50.0,-99.9,-100.00,North,-999,-999.0,-999.0,-999,0.00,,,0.06,,2013-10-20 14:12:00,
2013-10-20 10:22:00,50.0,-99.9,-100.00,North,-999,-999.0,-999.0,-999,0.00,,,0.06,,2013-10-20 14:22:00,
2013-10-20 10:30:00,53.0,-99.9,-100.00,North,-999,-999.0,-999.0,-999,0.00,,,0.06,,2013-10-20 14:30:00,
2013-10-20 11:11:00,53.0,-99.9,-100.00,North,-999,-999.0,-999.0,-999,0.00,,,0.06,,2013-10-20 15:11:00,
2013-10-20 11:22:00,53.0,-99.9,-100.00,North,-999,-999.0,-999.0,-999,0.00,,,0.06,,2013-10-20 15:22:00,
2013-10-20 11:30:00,55.0,-99.9,-100.00,North,-999,-999.0,-999.0,-999,0.00,,,0.06,,2013-10-20 15:30:00,
2013-10-20 12:14:00,55.0,-99.9,-100.00,North,-999,-999.0,-999.0,-999,0.00,,,0.06,,2013-10-20 16:14:00,
2013-10-20 12:24:00,55.0,-99.9,-100.00,North,-999,-999.0,-999.0,-999,0.00,,,0.06,,2013-10-20 16:24:00,
2013-10-20 12:30:00,56.0,-99.9,-100.00,North,-999,-999.0,-999.0,-999,0.00,,,0.06,,2013-10-20 16:30:00,
2013-10-20 13:12:00,56.0,-99.9,-100.00,North,-999,-999.0,-999.0,-999,0.00,,,0.06,,2013-10-20 17:12:00,
2013-10-20 13:23:00,56.0,-99.9,-100.00,North,-999,-999.0,-999.0,-999,0.00,,,0.06,,2013-10-20 17:23:00,
2013-10-20 13:30:00,57.0,-99.9,-100.00,North,-999,-999.0,-999.0,-999,0.00,,,0.06,,2013-10-20 17:30:00,
2013-10-20 14:13:00,57.0,-99.9,-100.00,North,-999,-999.0,-999.0,-999,0.00,,,0.06,,2013-10-20 18:13:00,
2013-10-20 14:22:00,57.0,-99.9,-100.00,North,-999,-999.0,-999.0,-999,0.00,,,0.06,,2013-10-20 18:22:00,
2013-10-20 14:30:00,57.0,-99.9,-100.00,North,-999,-999.0,-999.0,-999,0.00,,,0.06,,2013-10-20 18:30:00,
2013-10-20 15:12:00,57.0,-99.9,-100.00,North,-999,-999.0,-999.0,-999,0.00,,,0.06,,2013-10-20 19:12:00,
2013-10-20 15:22:00,57.0,-99.9,-100.00,North,-999,-999.0,-999.0,-999,0.00,,,0.06,,2013-10-20 19:22:00,
2013-10-20 15:30:00,57.0,-99.9,-100.00,North,-999,-999.0,-999.0,-999,0.00,,,0.06,,2013-10-20 19:30:00,
2013-10-20 16:12:00,57.0,-99.9,-100.00,North,-999,-999.0,-999.0,-999,0.00,,,0.06,,2013-10-20 20:12:00,
2013-10-20 16:22:00,57.0,-99.9,-100.00,North,-999,-999.0,-999.0,-999,0.00,,,0.06,,2013-10-20 20:22:00,
2013-10-20 16:30:00,57.0,-99.9,-100.00,North,-999,-999.0,-999.0,-999,0.00,,,-99.99,,2013-10-20 20:30:00,
2013-10-20 17:12:00,57.0,-99.9,-100.00,North,-999,-999.0,-999.0,-999,0.00,,,-99.99,,2013-10-20 21:12:00,
2013-10-20 17:22:00,57.0,-99.9,-100.00,North,-999,-999.0,-999.0,-999,0.00,,,-99.99,,2013-10-20 21:22:00,
2013-10-20 17:30:00,55.0,-99.9,-100.00,North,-999,-999.0,-999.0,-999,0.00,,,0.06,,2013-10-20 21:30:00,
2013-10-20 18:14:00,55.0,-99.9,-100.00,North,-999,-999.0,-999.0,-999,0.00,,,0.06,,2013-10-20 22:14:00,
2013-10-20 18:23:00,55.0,-99.9,-100.00,North,-999,-999.0,-999.0,-999,0.00,,,0.06,,2013-10-20 22:23:00,
2013-10-20 18:30:00,49.0,-99.9,-100.00,North,-999,-999.0,-999.0,-999,0.00,,,0.06,,2013-10-20 22:30:00,
2013-10-20 19:13:00,49.0,-99.9,-100.00,North,-999,-999.0,-999.0,-999,0.00,,,0.06,,2013-10-20 23:13:00,
2013-10-20 19:22:00,49.0,-99.9,-100.00,North,-999,-999.0,-999.0,-999,0.00,,,0.06,,2013-10-20 23:22:00,
2013-10-20 19:30:00,47.0,-99.9,-100.00,North,-999,-999.0,-999.0,-999,0.00,,,0.06,,2013-10-20 23:30:00,
2013-10-20 20:12:00,47.0,-99.9,-100.00,North,-999,-999.0,-999.0,-999,0.00,,,0.06,,2013-10-21 00:12:00,
2013-10-20 20:22:00,47.0,-99.9,-100.00,North,-999,-999.0,-999.0,-999,0.00,,,0.06,,2013-10-21 00:22:00,
2013-10-20 20:30:00,48.0,-99.9,-100.00,North,-999,-999.0,-999.0,-999,0.00,,,0.06,,2013-10-21 00:30:00,
2013-10-20 21:12:00,48.0,-99.9,-100.00,North,-999,-999.0,-999.0,-999,0.00,,,0.06,,2013-10-21 01:12:00,
2013-10-20 21:22:00,48.0,-99.9,-100.00,North,-999,-999.0,-999.0,-999,0.00,,,0.06,,2013-10-21 01:22:00,
2013-10-20 21:30:00,43.0,-99.9,-100.00,North,-999,-999.0,-999.0,-999,0.00,,,0.06,,2013-10-21 01:30:00,
2013-10-20 22:12:00,43.0,-99.9,-100.00,North,-999,-999.0,-999.0,-999,0.00,,,0.06,,2013-10-21 02:12:00,
2013-10-20 22:22:00,43.0,-99.9,-100.00,North,-999,-999.0,-999.0,-999,0.00,,,0.06,,2013-10-21 02:22:00,
2013-10-20 22:30:00,40.0,-99.9,-100.00,North,-999,-999.0,-999.0,-999,0.00,,,0.02,,2013-10-21 02:30:00,
2013-10-20 23:12:00,40.0,-99.9,-100.00,North,-999,-999.0,-999.0,-999,0.00,,,0.02,,2013-10-21 03:12:00,
2013-10-20 23:22:00,40.0,-99.9,-100.00,North,-999,-999.0,-999.0,-999,0.00,,,0.02,,2013-10-21 03:22:00,
2013-10-20 23:30:00,38.0,-99.9,-100.00,North,-999,-999.0,-999.0,-999,0.00,,,-99.99,,2013-10-21 03:30:00,